Time,TemperatureF,DewpointF,PressureIn,WindDirection,WindDirectionDegrees,WindSpeedMPH,WindSpeedGustMPH,Humidity,HourlyPrecipIn,Conditions,Clouds,dailyrainin,SoftwareType,DateUTC
2013-01-28 00:04:00,7.0,2.0,30.65,SW,226,0.0,0.0,80,0.00,,,0.00,,2013-01-28 05:04:00,
2013-01-28 00:12:00,7.0,2.0,30.65,SW,226,0.0,0.0,80,0.00,,,0.00,,2013-01-28 05:12:00,
2013-01-28 00:22:00,7.0,2.0,30.65,SW,226,0.0,0.0,80,0.00,,,0.00,,2013-01-28 05:22:00,
2013-01-28 00:32:00,7.0,2.0,30.65,SW,226,0.0,0.0,80,0.00,,,0.00,,2013-01-28 05:32:00,
2013-01-28 00:42:00,7.0,2.0,30.65,SW,226,0.0,0.0,80,0.00,,,0.00,,2013-01-28 05:42:00,
2013-01-28 00:52:00,6.0,1.0,30.65,SW,226,0.0,0.0,80,0.00,,,0.00,,2013-01-28 05:52:00,
2013-01-28 01:02:00,7.0,2.0,30.65,SW,227,0.0,0.0,81,0.00,,,0.00,,2013-01-28 06:02:00,
2013-01-28 01:11:00,7.0,2.0,30.65,SW,227,0.0,0.0,81,0.00,,,0.00,,2013-01-28 06:11:00,
2013-01-28 01:22:00,6.0,1.0,30.64,SW,226,0.0,0.0,81,0.00,,,0.00,,2013-01-28 06:22:00,
2013-01-28 01:32:00,6.0,1.0,30.65,SW,226,0.0,0.0,81,0.00,,,0.00,,2013-01-28 06:32:00,
2013-01-28 01:42:00,6.0,1.0,30.65,SW,226,0.0,0.0,81,0.00,,,0.00,,2013-01-28 06:42:00,
2013-01-28 01:52:00,6.0,2.0,30.66,SW,227,0.0,0.0,82,0.00,,,0.00,,2013-01-28 06:52:00,
2013-01-28 02:03:00,6.0,1.0,30.67,SW,226,0.0,0.0,81,0.00,,,0.00,,2013-01-28 07:03:00,
2013-01-28 02:11:00,6.0,1.0,30.67,SW,226,0.0,0.0,81,0.00,,,0.00,,2013-01-28 07:11:00,
2013-01-28 02:22:00,6.0,2.0,30.66,SW,226,0.0,0.0,82,0.00,,,0.00,,2013-01-28 07:22:00,
2013-01-28 02:32:00,7.0,3.0,30.65,SW,226,0.0,0.0,82,0.00,,,0.00,,2013-01-28 07:32:00,
2013-01-28 02:42:00,7.0,3.0,30.65,SW,226,0.0,0.0,82,0.00,,,0.00,,2013-01-28 07:42:00,
2013-01-28 02:51:00,7.0,3.0,30.64,SW,226,0.0,0.0,82,0.00,,,0.00,,2013-01-28 07:51:00,
2013-01-28 03:01:00,8.0,3.0,30.64,SW,228,0.0,0.0,80,0.00,,,0.00,,2013-01-28 08:01:00,
2013-01-28 03:11:00,8.0,3.0,30.64,SW,228,0.0,0.0,80,0.00,,,0.00,,2013-01-28 08:11:00,
2013-01-28 03:21:00,9.0,4.0,30.64,SW,228,0.0,0.0,79,0.00,,,0.00,,2013-01-28 08:21:00,
2013-01-28 03:32:00,9.0,4.0,30.64,SW,226,0.0,0.0,79,0.00,,,0.00,,2013-01-28 08:32:00,
2013-01-28 03:42:00,9.0,4.0,30.64,SW,226,0.0,0.0,79,0.00,,,0.00,,2013-01-28 08:42:00,
2013-01-28 03:52:00,10.0,5.0,30.63,SW,226,0.0,0.0,79,0.00,,,0.00,,2013-01-28 08:52:00,
2013-01-28 04:02:00,10.0,5.0,30.62,SW,226,0.0,1.0,79,0.00,,,0.00,,2013-01-28 09:02:00,
2013-01-28 04:12:00,10.0,5.0,30.62,SW,226,0.0,1.0,79,0.00,,,0.00,,2013-01-28 09:12:00,
2013-01-28 04:22:00,11.0,6.0,30.62,SW,226,0.0,0.0,78,0.00,,,0.00,,2013-01-28 09:22:00,
2013-01-28 04:32:00,11.0,5.0,30.62,SW,226,0.0,1.0,77,0.00,,,0.00,,2013-01-28 09:32:00,
2013-01-28 04:42:00,11.0,5.0,30.62,SW,226,0.0,1.0,77,0.00,,,0.00,,2013-01-28 09:42:00,
2013-01-28 04:52:00,11.0,5.0,30.61,SW,226,0.0,0.0,77,0.00,,,0.00,,2013-01-28 09:52:00,
2013-01-28 05:02:00,11.0,6.0,30.61,WSW,238,0.0,0.0,78,0.00,,,0.00,,2013-01-28 10:02:00,
2013-01-28 05:11:00,11.0,6.0,30.61,WSW,238,0.0,0.0,78,0.00,,,0.00,,2013-01-28 10:11:00,
2013-01-28 05:21:00,10.0,5.0,30.61,WSW,238,0.0,1.0,78,0.00,,,0.00,,2013-01-28 10:21:00,
2013-01-28 05:32:00,10.0,5.0,30.60,WSW,238,0.0,0.0,80,0.00,,,0.00,,2013-01-28 10:32:00,
2013-01-28 05:42:00,10.0,5.0,30.60,WSW,238,0.0,0.0,80,0.00,,,0.00,,2013-01-28 10:42:00,
2013-01-28 05:52:00,10.0,5.0,30.60,WSW,238,0.0,0.0,80,0.00,,,0.00,,2013-01-28 10:52:00,
2013-01-28 06:02:00,10.0,5.0,30.60,WSW,238,0.0,0.0,81,0.00,,,0.00,,2013-01-28 11:02:00,
2013-01-28 06:11:00,10.0,5.0,30.60,WSW,238,0.0,0.0,81,0.00,,,0.00,,2013-01-28 11:11:00,
2013-01-28 06:22:00,10.0,6.0,30.60,WSW,238,0.0,0.0,82,0.00,,,0.00,,2013-01-28 11:22:00,
2013-01-28 06:32:00,10.0,5.0,30.60,WSW,238,0.0,0.0,81,0.00,,,0.00,,2013-01-28 11:32:00,
2013-01-28 06:42:00,10.0,5.0,30.60,WSW,238,0.0,0.0,81,0.00,,,0.00,,2013-01-28 11:42:00,
2013-01-28 06:52:00,10.0,5.0,30.60,WSW,237,0.0,0.0,81,0.00,,,0.00,,2013-01-28 11:52:00,
2013-01-28 07:03:00,10.0,5.0,30.59,WSW,238,0.0,0.0,81,0.00,,,0.00,,2013-01-28 12:03:00,
2013-01-28 07:12:00,10.0,5.0,30.59,WSW,238,0.0,0.0,81,0.00,,,0.00,,2013-01-28 12:12:00,
2013-01-28 07:23:00,10.0,6.0,30.60,West,267,0.0,0.0,82,0.00,,,0.00,,2013-01-28 12:23:00,
2013-01-28 07:33:00,10.0,6.0,30.59,West,267,0.0,0.0,82,0.00,,,0.00,,2013-01-28 12:33:00,
2013-01-28 07:42:00,10.0,6.0,30.59,West,267,0.0,0.0,82,0.00,,,0.00,,2013-01-28 12:42:00,
2013-01-28 07:52:00,11.0,7.0,30.59,West,266,0.0,0.0,82,0.00,,,0.00,,2013-01-28 12:52:00,
2013-01-28 08:03:00,11.0,7.0,30.59,West,266,0.0,0.0,82,0.00,,,0.00,,2013-01-28 13:03:00,
2013-01-28 08:12:00,11.0,7.0,30.59,West,266,0.0,0.0,82,0.00,,,0.00,,2013-01-28 13:12:00,
2013-01-28 08:23:00,12.0,7.0,30.59,West,265,0.0,0.0,80,0.00,,,0.00,,2013-01-28 13:23:00,
2013-01-28 08:33:00,13.0,7.0,30.59,West,266,0.0,0.0,78,0.00,,,0.00,,2013-01-28 13:33:00,
2013-01-28 08:42:00,13.0,7.0,30.59,West,266,0.0,0.0,78,0.00,,,0.00,,2013-01-28 13:42:00,
2013-01-28 08:52:00,13.0,7.0,30.58,West,265,0.0,1.0,76,0.00,,,0.00,,2013-01-28 13:52:00,
2013-01-28 09:03:00,14.0,7.0,30.58,West,266,0.0,0.0,74,0.00,,,0.00,,2013-01-28 14:03:00,
2013-01-28 09:12:00,14.0,7.0,30.58,West,266,0.0,0.0,74,0.00,,,0.00,,2013-01-28 14:12:00,
2013-01-28 09:23:00,15.0,8.0,30.58,West,265,0.0,0.0,72,0.00,,,0.00,,2013-01-28 14:23:00,
2013-01-28 09:33:00,16.0,8.0,30.58,West,259,0.0,1.0,71,0.00,,,0.00,,2013-01-28 14:33:00,
2013-01-28 09:43:00,16.0,8.0,30.58,West,259,0.0,1.0,71,0.00,,,0.00,,2013-01-28 14:43:00,
2013-01-28 09:52:00,17.0,8.0,30.58,West,260,0.0,0.0,68,0.00,,,0.00,,2013-01-28 14:52:00,
2013-01-28 10:03:00,17.0,8.0,30.58,SSE,167,0.0,1.0,68,0.00,,,0.00,,2013-01-28 15:03:00,
2013-01-28 10:13:00,17.0,8.0,30.58,SSE,167,0.0,1.0,68,0.00,,,0.00,,2013-01-28 15:13:00,
2013-01-28 10:23:00,17.0,9.0,30.57,WSW,245,0.0,1.0,69,0.00,,,0.00,,2013-01-28 15:23:00,
2013-01-28 10:33:00,18.0,9.0,30.55,WSW,245,0.0,1.0,66,0.00,,,0.00,,2013-01-28 15:33:00,
2013-01-28 10:43:00,18.0,9.0,30.55,WSW,245,0.0,1.0,66,0.00,,,0.00,,2013-01-28 15:43:00,
2013-01-28 10:53:00,18.0,10.0,30.54,WSW,245,0.0,1.0,69,0.00,,,0.00,,2013-01-28 15:53:00,
2013-01-28 11:04:00,19.0,11.0,30.53,WSW,246,0.0,0.0,72,0.00,,,0.00,,2013-01-28 16:04:00,
2013-01-28 11:13:00,19.0,11.0,30.53,WSW,246,0.0,0.0,72,0.00,,,0.00,,2013-01-28 16:13:00,
2013-01-28 11:22:00,19.0,13.0,30.54,West,266,0.0,1.0,77,0.00,,,0.00,,2013-01-28 16:22:00,
2013-01-28 11:33:00,19.0,14.0,30.52,WSW,255,0.0,0.0,79,0.00,,,0.00,,2013-01-28 16:33:00,
2013-01-28 11:43:00,19.0,14.0,30.52,WSW,255,0.0,0.0,79,0.00,,,0.00,,2013-01-28 16:43:00,
2013-01-28 11:52:00,19.0,14.0,30.51,WSW,258,0.0,1.0,80,0.00,,,0.00,,2013-01-28 16:52:00,
2013-01-28 12:02:00,19.0,14.0,30.51,WSW,258,0.0,1.0,80,0.00,,,0.00,,2013-01-28 17:02:00,
2013-01-28 12:12:00,19.0,14.0,30.51,WSW,258,0.0,1.0,80,0.00,,,0.00,,2013-01-28 17:12:00,
2013-01-28 12:23:00,19.0,14.0,30.50,WSW,256,1.0,2.0,81,0.00,,,0.00,,2013-01-28 17:23:00,
2013-01-28 12:33:00,19.0,14.0,30.48,West,267,1.0,2.0,81,0.00,,,0.00,,2013-01-28 17:33:00,
2013-01-28 12:42:00,19.0,14.0,30.48,West,267,1.0,2.0,81,0.00,,,0.00,,2013-01-28 17:42:00,
2013-01-28 12:52:00,19.0,14.0,30.47,WSW,239,0.0,1.0,82,0.00,,,0.00,,2013-01-28 17:52:00,
2013-01-28 13:03:00,20.0,16.0,30.45,WSW,239,0.0,1.0,83,0.00,,,0.00,,2013-01-28 18:03:00,
2013-01-28 13:13:00,20.0,16.0,30.45,WSW,239,0.0,1.0,83,0.00,,,0.00,,2013-01-28 18:13:00,
2013-01-28 13:23:00,20.0,16.0,30.43,WSW,239,0.0,1.0,85,0.00,,,0.00,,2013-01-28 18:23:00,
2013-01-28 13:33:00,21.0,18.0,30.41,WSW,239,0.0,0.0,87,0.00,,,0.00,,2013-01-28 18:33:00,
2013-01-28 13:42:00,21.0,18.0,30.41,WSW,239,0.0,0.0,87,0.00,,,0.00,,2013-01-28 18:42:00,
2013-01-28 13:52:00,22.0,18.0,30.39,SE,138,0.0,1.0,86,0.00,,,0.00,,2013-01-28 18:52:00,
2013-01-28 14:02:00,23.0,19.0,30.37,SSE,165,0.0,3.0,83,0.00,,,0.00,,2013-01-28 19:02:00,
2013-01-28 14:12:00,23.0,19.0,30.37,SSE,165,0.0,3.0,83,0.00,,,0.00,,2013-01-28 19:12:00,
2013-01-28 14:22:00,23.0,19.0,30.37,ENE,62,2.0,4.0,83,0.00,,,0.00,,2013-01-28 19:22:00,
2013-01-28 14:33:00,22.0,18.0,30.35,SE,145,0.0,2.0,85,0.00,,,0.00,,2013-01-28 19:33:00,
2013-01-28 14:42:00,22.0,18.0,30.35,SE,145,0.0,2.0,85,0.00,,,0.00,,2013-01-28 19:42:00,
2013-01-28 14:52:00,22.0,18.0,30.35,South,187,0.0,2.0,86,0.00,,,0.00,,2013-01-28 19:52:00,
2013-01-28 15:03:00,22.0,19.0,30.33,ENE,78,0.0,3.0,87,0.00,,,0.00,,2013-01-28 20:03:00,
2013-01-28 15:12:00,22.0,19.0,30.33,ENE,78,0.0,3.0,87,0.00,,,0.00,,2013-01-28 20:12:00,
2013-01-28 15:22:00,23.0,20.0,30.34,East,96,0.0,0.0,87,0.00,,,0.00,,2013-01-28 20:22:00,
2013-01-28 15:33:00,22.0,19.0,30.33,East,96,0.0,1.0,88,0.00,,,0.00,,2013-01-28 20:33:00,
2013-01-28 15:42:00,22.0,19.0,30.33,East,96,0.0,1.0,88,0.00,,,0.00,,2013-01-28 20:42:00,
2013-01-28 15:52:00,23.0,20.0,30.34,East,96,0.0,0.0,89,0.00,,,0.00,,2013-01-28 20:52:00,
2013-01-28 16:03:00,22.0,20.0,30.33,East,96,0.0,0.0,90,0.00,,,0.00,,2013-01-28 21:03:00,
2013-01-28 16:12:00,22.0,20.0,30.33,East,96,0.0,0.0,90,0.00,,,0.00,,2013-01-28 21:12:00,
2013-01-28 16:23:00,22.0,20.0,30.33,East,96,0.0,0.0,90,0.00,,,0.00,,2013-01-28 21:23:00,
2013-01-28 16:33:00,22.0,20.0,30.33,East,96,0.0,0.0,90,0.00,,,0.00,,2013-01-28 21:33:00,
2013-01-28 16:43:00,22.0,20.0,30.33,East,96,0.0,0.0,90,0.00,,,0.00,,2013-01-28 21:43:00,
2013-01-28 16:52:00,22.0,20.0,30.31,East,96,0.0,1.0,90,0.00,,,0.00,,2013-01-28 21:52:00,
2013-01-28 17:02:00,22.0,20.0,30.30,East,96,0.0,0.0,91,0.00,,,0.00,,2013-01-28 22:02:00,
2013-01-28 17:12:00,22.0,20.0,30.30,East,96,0.0,0.0,91,0.00,,,0.00,,2013-01-28 22:12:00,
2013-01-28 17:23:00,22.0,20.0,30.30,East,96,0.0,0.0,91,0.00,,,0.00,,2013-01-28 22:23:00,
2013-01-28 17:33:00,22.0,20.0,30.29,WNW,291,0.0,0.0,91,0.00,,,0.00,,2013-01-28 22:33:00,
2013-01-28 17:42:00,22.0,20.0,30.29,WNW,291,0.0,0.0,91,0.00,,,0.00,,2013-01-28 22:42:00,
2013-01-28 17:52:00,22.0,20.0,30.28,WNW,287,0.0,0.0,92,0.00,,,0.00,,2013-01-28 22:52:00,
2013-01-28 18:03:00,22.0,20.0,30.27,West,266,0.0,0.0,91,0.00,,,0.00,,2013-01-28 23:03:00,
2013-01-28 18:12:00,22.0,20.0,30.27,West,266,0.0,0.0,91,0.00,,,0.00,,2013-01-28 23:12:00,
2013-01-28 18:22:00,22.0,20.0,30.26,West,271,0.0,1.0,92,0.00,,,0.00,,2013-01-28 23:22:00,
2013-01-28 18:32:00,22.0,20.0,30.27,WSW,253,0.0,1.0,91,0.00,,,0.00,,2013-01-28 23:32:00,
2013-01-28 18:42:00,22.0,20.0,30.27,WSW,253,0.0,1.0,91,0.00,,,0.00,,2013-01-28 23:42:00,
2013-01-28 18:52:00,22.0,20.0,30.26,WSW,253,0.0,0.0,91,0.00,,,0.00,,2013-01-28 23:52:00,
2013-01-28 19:02:00,23.0,21.0,30.27,WSW,254,0.0,0.0,91,0.00,,,0.00,,2013-01-29 00:02:00,
2013-01-28 19:12:00,23.0,21.0,30.27,WSW,254,0.0,0.0,91,0.00,,,0.00,,2013-01-29 00:12:00,
2013-01-28 19:22:00,23.0,21.0,30.29,West,271,0.0,1.0,91,0.00,,,0.00,,2013-01-29 00:22:00,
2013-01-28 19:33:00,22.0,20.0,30.27,SSW,193,0.0,1.0,91,0.00,,,0.00,,2013-01-29 00:33:00,
2013-01-28 19:42:00,22.0,20.0,30.27,SSW,193,0.0,1.0,91,0.00,,,0.00,,2013-01-29 00:42:00,
2013-01-28 19:52:00,22.0,20.0,30.27,WSW,240,0.0,1.0,92,0.00,,,0.00,,2013-01-29 00:52:00,
2013-01-28 20:02:00,23.0,21.0,30.24,SE,132,0.0,0.0,92,0.00,,,0.00,,2013-01-29 01:02:00,
2013-01-28 20:12:00,23.0,21.0,30.24,SE,132,0.0,0.0,92,0.00,,,0.00,,2013-01-29 01:12:00,
2013-01-28 20:23:00,23.0,21.0,30.23,SE,127,0.0,0.0,92,0.00,,,0.00,,2013-01-29 01:23:00,
2013-01-28 20:32:00,23.0,21.0,30.23,ESE,108,0.0,0.0,92,0.00,,,0.00,,2013-01-29 01:32:00,
2013-01-28 20:42:00,23.0,21.0,30.23,ESE,108,0.0,0.0,92,0.00,,,0.00,,2013-01-29 01:42:00,
2013-01-28 20:52:00,23.0,21.0,30.22,SSW,204,0.0,0.0,92,0.00,,,0.00,,2013-01-29 01:52:00,
2013-01-28 21:02:00,23.0,21.0,30.23,SSE,153,0.0,0.0,92,0.00,,,0.00,,2013-01-29 02:02:00,
2013-01-28 21:12:00,23.0,21.0,30.23,SSE,153,0.0,0.0,92,0.00,,,0.00,,2013-01-29 02:12:00,
2013-01-28 21:22:00,23.0,21.0,30.22,SW,225,0.0,0.0,91,0.00,,,0.00,,2013-01-29 02:22:00,
2013-01-28 21:33:00,23.0,21.0,30.22,SSW,198,0.0,0.0,90,0.00,,,0.00,,2013-01-29 02:33:00,
2013-01-28 21:42:00,23.0,21.0,30.22,SSW,198,0.0,0.0,90,0.00,,,0.00,,2013-01-29 02:42:00,
2013-01-28 21:52:00,22.0,20.0,30.21,SE,138,0.0,2.0,90,0.00,,,0.00,,2013-01-29 02:52:00,
2013-01-28 22:03:00,22.0,20.0,30.21,NE,41,0.0,3.0,90,0.00,,,0.00,,2013-01-29 03:03:00,
2013-01-28 22:12:00,22.0,20.0,30.21,NE,41,0.0,3.0,90,0.00,,,0.00,,2013-01-29 03:12:00,
2013-01-28 22:22:00,22.0,20.0,30.20,SW,224,0.0,1.0,90,0.00,,,0.00,,2013-01-29 03:22:00,
2013-01-28 22:32:00,22.0,20.0,30.20,West,259,0.0,0.0,91,0.00,,,0.00,,2013-01-29 03:32:00,
2013-01-28 22:42:00,22.0,20.0,30.20,West,259,0.0,0.0,91,0.00,,,0.00,,2013-01-29 03:42:00,
2013-01-28 22:52:00,22.0,20.0,30.21,West,275,0.0,0.0,90,0.00,,,0.00,,2013-01-29 03:52:00,
2013-01-28 23:03:00,22.0,20.0,30.21,West,276,0.0,0.0,91,0.00,,,0.00,,2013-01-29 04:03:00,
2013-01-28 23:12:00,22.0,20.0,30.21,West,276,0.0,0.0,91,0.00,,,0.00,,2013-01-29 04:12:00,
2013-01-28 23:22:00,22.0,20.0,30.20,WSW,250,0.0,0.0,91,0.00,,,0.00,,2013-01-29 04:22:00,
2013-01-28 23:32:00,22.0,20.0,30.20,SW,228,0.0,1.0,90,0.00,,,0.00,,2013-01-29 04:32:00,
2013-01-28 23:42:00,22.0,20.0,30.20,SW,228,0.0,1.0,90,0.00,,,0.00,,2013-01-29 04:42:00,
2013-01-28 23:52:00,22.0,20.0,30.20,SW,228,0.0,1.0,90,0.00,,,0.00,,2013-01-29 04:52:00,